Flag for U.S.A. Weather past 2 weeks in Orlando, Florida, U.S.A.

Now
83 °F

Scattered clouds.


Feels Like: 85 °F
Forecast: 64 / 80 °F
Wind: 10 mph from Southeast

Location: Orlando Executive Airport

Current Time: Mar 3, 2015 at 3:30:15 PM

Latest Report: Mar 3, 2015 at 2:53 PM


Visibility: 10 mi

Pressure: 30.14 "Hg

Humidity: 55%

Dew point: 65 °F

Location of OrlandoLocation

Historic Weather in Orlando — Graph

°F

Orlando temperature yesterday

Maximum temperature yesterday: 81 °F (at 1:53 PM)
Minimum temperature yesterday: 63 °F (at 6:53 AM)
Average temperature yesterday: 71 °F

Past Weeks' High & Low Weather Summary

 TemperatureHumidityPressure
High82 °F (Feb 23, 2:53 PM)100% (Mar 2, 2:53 AM)30.47 "Hg (Mar 2, 2:53 AM)
Low34 °F (Feb 20, 6:53 AM)21% (Feb 19, 3:53 PM)29.68 "Hg (Feb 26, 3:53 AM)
Average63 °F73%30.15 "Hg
* Reported Feb 16 1:53 PM — Mar 3 1:53 PM, Orlando, Weather by CustomWeather, © 2015

Note: Actual official high and low records may vary slightly from our data, if they occured in-between our weather recording intervals... More about our weather records

Advertising

Orlando weather history for previous 24 hours

 ConditionsComfort  
Time TempWeatherWind HumidityBarometerVisibility
1:53 PM
Tue, Mar 3
82 °FPassing clouds.12 mph58%30.17 "Hg10 mi
12:53 PM79 °FBroken clouds.5 mph65%30.21 "Hg10 mi
11:53 AM78 °FBroken clouds.8 mph66%30.24 "Hg10 mi
10:53 AM76 °FPartly sunny.9 mph77%30.25 "Hg10 mi
10:02 AM72 °FPassing clouds.3 mph87%30.25 "Hg10 mi
9:53 AM72 °FFog.No wind87%30.26 "Hg4 mi
8:55 AM68 °FFog.3 mph96%30.25 "Hg1 mi
7:53 AM65 °FFog.5 mph97%30.24 "Hg1 mi
6:59 AM65 °FFog.No wind97%30.22 "Hg0 mi
5:53 AM64 °FFog.6 mph97%30.22 "Hg1 mi
4:53 AM65 °FFog.3 mph94%30.21 "Hg1 mi
3:53 AM65 °FClear.No wind94%30.20 "Hg9 mi
2:53 AM66 °FClear.No wind93%30.20 "Hg10 mi
1:53 AM65 °FClear.No wind97%30.20 "Hg7 mi
12:53 AM67 °FClear.No wind97%30.22 "Hg8 mi
11:53 PM
Mon, Mar 2
67 °FClear.3 mph93%30.24 "Hg10 mi
10:53 PM68 °FClear.No wind90%30.25 "Hg10 mi
9:53 PM69 °FClear.3 mph87%30.26 "Hg10 mi
8:53 PM70 °FClear.5 mph87%30.25 "Hg10 mi
7:53 PM72 °FClear.6 mph81%30.23 "Hg10 mi
6:53 PM74 °FClear.8 mph76%30.22 "Hg10 mi
5:53 PM79 °FPassing clouds.7 mph62%30.21 "Hg10 mi
4:53 PM81 °FPartly sunny.3 mph54%30.21 "Hg10 mi
3:53 PM81 °FBroken clouds.3 mph56%30.22 "Hg10 mi
Weather by CustomWeather, © 2015

See weather overviewHow to use our weather pages